全球卫星定位系统 GPS 60星 (NAVSTAR 60 (USA 196))

导读 | 豆包AI

NAVSTAR 60(USA 196)是美国于2007年10月17日发射的GPS导航卫星,隶属于NAVSTAR全球定位系统系列。作为GPS组网的重要组成部分,它运行在中地球轨道,依托测距与授时技术,为全球用户提供高精度的定位、导航与授时服务,支撑了民用导航、军事行动等多领域应用,是美国全球导航基础设施的关键节点。

Basic Information
目录编号:
32260
目录名称:
NAVSTAR 60 (USA 196)
国际标识:
2007-047A
轨道中心:
EARTH
卫星名称:
GPS 60星
卫星全名:
全球卫星定位系统 GPS 60星 (NAVSTAR 60 (USA 196))
卫星状态:
在轨 (已飞行6723 天)
发射日期:
2007-10-17 UTC
国别 :
美国 (US)
星等 :
--
Orbit Information
数据来源 国际轨道数据 AOE轨道数据
星历时间 2026-03-13T07:55:02+0800
1天前
查看轨道信息
2026-03-10T23:00:00+0800
3天前
查看轨道信息
半长轴 26560.64km 26560.631km
偏心率 0.0163674 0.0163683
轨道倾角 54.023° 54.023°
近地点辐角 86.038° 86.007°
升交点赤经 84.029° 84.127°
平近点角 275.881° 3.553°
近地点 19747.774km 19747.741km
远地点 20617.232km 20617.247km
周期 717.989分钟 717.988分钟
每日圈数 2.005603 2.005604
Detailed Information
平衡模式:
三轴稳定
覆盖范围:
全球
运营商:
美国太空军
运营商所在国:
美国
制造商(研发单位):
洛克希德·马丁公司
制造商所在国:
美国
使用方式:
暂无
工作目标:
提供军用及民用全球定位与导航服务。
预期寿命:
10年
Satellite Introduction
全球定位系统(英语:Global Positioning System,通常简称GPS),又称全球卫星定位系统,是美国国防部研制,美国太空军运营与维护的中地球轨道卫星导航系统。它可以为地球表面约98%的地区提供准确的定位、测速和高精度的标准时间。全球定位系统可满足位于全球地面任何一处或近地空间的军事用户连续且精确地确定三维位置、三维运动和时间的需求。该系统包括太空中的31颗GPS人造卫星.该卫星仍在工作。
2D Orbit Map
3D Orbit Map
Orbit Altitude Analysis Chart
Orbit Inclination Analysis Chart
Orbit Comprehensive Analysis Chart
View Comprehensive Chart